Location: Sungai Igah
(2.7333°N, 114.2500°E)
Time: 00:45:31
(UTC+00:00)

Cosmos 2298 Rocket - Visible Passes

Search period start: 23 October 2021 00:00
Search period end: 02 November 2021 00:00
Orbit: 777 x 783 km, 74.0° (Epoch: 22 October)

Date Brightness Start Highest point End Pass type
(mag) Time Alt. Az. Time Alt. Az. Time Alt. Az.
23 Oct 6.9 19:08:11 12° E 19:08:11 12° E 19:09:05 10° ESE visible
23 Oct 4.7 20:48:46 33° WSW 20:48:46 33° WSW 20:53:12 10° SSW visible
24 Oct 5.0 20:17:01 36° S 20:17:01 36° S 20:20:12 10° S visible
25 Oct 6.1 19:45:06 20° SSE 19:45:06 20° SSE 19:46:45 10° SSE visible
